Regional Weather Roundup
Issued by NWS Little Rock, AR

Home | Current Version | Previous Version | Graphics & Text | Print | Product List | Glossary On
Versions: 1 2 3 4 5 6 7 8 9 10 11 12 13 14 15 16 17 18 19 20 21 22 23 24 25 26 27 28 29 30 31 32
000
ASUS44 KLZK 260405
RWRLZK

WEATHER ROUNDUP FOR ARKANSAS
NATIONAL WEATHER SERVICE LITTLE ROCK AR
1100 PM CDT SUN JUN 25 2017

NOTE: "FAIR" INDICATES FEW OR NO CLOUDS BELOW 12,000 FEET WITH NO
SIGNIFICANT WEATHER AND/OR OBSTRUCTIONS TO VISIBILITY.

ARZ001-003-010-029-260500-
NORTHWEST ARKANSAS

CITY           SKY/WX    TMP DP  RH WIND       PRES   REMARKS
FAYETTEVILLE   CLOUDY    65  62  90 CALM      30.22S
FORT SMITH     CLEAR     75  59  57 E3        30.17S
HARRISON       PTCLDY    65  60  84 SW3       30.24R
BENTONVILLE    MOCLDY    72  57  60 E7        30.23R
ROGERS         CLOUDY    68  62  81 CALM      30.24R
SILOAM SPGS    CLOUDY    70  57  64 CALM      30.22R
$$

ARZ004-005-016-260500-
NORTH CENTRAL ARKANSAS

CITY           SKY/WX    TMP DP  RH WIND       PRES   REMARKS
BATESVILLE     CLEAR     66  59  77 CALM      30.20S
FLIPPIN        CLEAR     72  55  56 CALM      30.19R
MTN HOME       CLEAR     67  57  70 CALM      30.21R
$$

ARZ040-041-260500-
WEST CENTRAL ARKANSAS

CITY           SKY/WX    TMP DP  RH WIND       PRES   REMARKS
MENA           CLEAR     68  66  94 CALM      30.21S
MOUNT IDA      CLEAR     66  64  93 CALM      30.19R
$$

ARZ009-017-025-026-028-260500-
NORTHEAST ARKANSAS

CITY           SKY/WX    TMP DP  RH WIND       PRES   REMARKS
JONESBORO      CLEAR     71  61  70 SW5       30.18R
WALNUT RIDGE   CLEAR     72  57  60 SW5       30.18S
BLYTHEVILLE    CLEAR     72  65  78 SW5       30.18R
$$

ARZ022-023-033-042-044-260500-
CENTRAL ARKANSAS

CITY           SKY/WX    TMP DP  RH WIND       PRES   REMARKS
LITTLE ROCK    PTCLDY    67  62  84 S3        30.20R
N LITTLE ROCK    N/A     68  59  73 CALM      30.19R
JACKSONVILLE   CLEAR     66  64  94 CALM      30.19R
CONWAY           N/A     70  64  83 CALM      30.18S
SEARCY         CLEAR     66  65  96 CALM      30.21R
HOT SPRINGS    CLEAR     70  61  73 E5        30.20R
RUSSELLVILLE   CLOUDY    68  63  84 CALM      30.18S
CLINTON        FAIR      63  61  94 CALM      30.21S
$$

ARZ036-260500-
EAST ARKANSAS

CITY           SKY/WX    TMP DP  RH WIND       PRES   REMARKS
WEST MEMPHIS   PTCLDY    68  63  84 CALM      30.18R
$$

ARZ050-053-066-070-073-260500-
SOUTHWEST ARKANSAS

CITY           SKY/WX    TMP DP  RH WIND       PRES   REMARKS
CAMDEN         CLEAR     66  63  88 CALM      30.18R
TEXARKANA      CLEAR     71  63  75 SE3       30.19R
EL DORADO      CLEAR     67  65  93 CALM      30.18S
DE QUEEN       CLEAR     68  66  93 CALM      30.17R
$$

ARZ056-057-069-260500-
SOUTHEAST ARKANSAS

CITY           SKY/WX    TMP DP  RH WIND       PRES   REMARKS
PINE BLUFF     CLEAR     67  64  90 N3        30.19S
STUTTGART      CLEAR     73  55  53 E3        30.20R
MONTICELLO     CLEAR     67  65  93 CALM      30.18S

$$






USA.gov is the U.S. government's official web portal to all federal, state and local government web resources and services.